CDT,Max TemperatureF,Mean TemperatureF,Min TemperatureF,Max Dew PointF,MeanDew PointF,Min DewpointF,Max Humidity, Mean Humidity, Min Humidity, Max Sea Level PressureIn, Mean Sea Level PressureIn, Min Sea Level PressureIn, Max VisibilityMiles, Mean VisibilityMiles, Min VisibilityMiles, Max Wind SpeedMPH, Mean Wind SpeedMPH, Max Gust SpeedMPH,PrecipitationIn, CloudCover, Events, WindDirDegrees
2013-10-1,82,71,60,67,64,58,93,82,56,30.03,29.98,29.93,10,8,4,9,4,,0.00,4,,178
2013-10-2,83,74,64,69,66,62,94,82,54,30.08,30.02,29.96,10,5,0,7,3,,0.00,5,Fog,138
2013-10-3,86,76,67,69,66,64,93,79,47,29.97,29.92,29.84,10,10,3,18,4,30,0.43,3,Rain-Thunderstorm,183
2013-10-4,87,77,67,69,66,63,93,73,44,29.96,29.93,29.89,10,8,3,13,5,18,0.00,1,,174
2013-10-5,75,64,53,69,62,48,91,83,71,29.96,29.91,29.86,10,9,4,12,7,20,0.04,5,Rain,212
2013-10-6,54,50,45,48,43,38,92,77,59,29.90,29.85,29.83,10,10,5,16,7,26,0.03,4,Rain,225
2013-10-7,70,59,49,48,46,42,90,61,36,30.14,30.09,30.04,10,10,1,12,7,17,0.01,1,,259
2013-10-8,77,62,46,52,46,43,93,64,32,30.20,30.16,30.12,10,10,7,12,2,9,0.00,0,,160
2013-10-9,74,59,44,51,46,42,93,69,32,30.21,30.15,30.11,10,9,3,9,3,,0.00,0,,131
2013-10-10,78,62,46,58,51,45,92,72,40,30.17,30.09,30.01,10,10,7,8,2,,0.00,0,,154
2013-10-11,79,65,51,60,54,49,95,70,37,30.04,29.97,29.89,10,8,0,16,5,23,0.00,1,Fog,147
2013-10-12,73,64,54,60,50,38,87,62,29,30.23,30.06,29.93,10,10,5,10,5,17,0.00,2,,267
2013-10-13,69,55,41,44,37,31,92,57,25,30.42,30.35,30.23,10,10,5,9,3,,0.00,0,,11
2013-10-14,69,54,39,51,41,36,87,62,31,30.37,30.25,30.06,10,10,7,10,3,17,0.01,0,Rain,103
2013-10-15,69,60,51,61,54,42,94,80,57,30.05,29.94,29.87,10,8,1,16,6,22,0.25,5,Rain,204
2013-10-16,54,50,46,45,41,39,85,71,59,30.05,30.01,29.99,10,10,7,12,5,16,0.00,7,,259
2013-10-17,63,54,46,47,43,36,92,69,36,30.01,29.95,29.90,10,10,4,15,4,23,0.01,4,Rain,235
2013-10-18,56,49,42,42,39,33,91,71,44,30.07,30.01,29.92,10,10,10,12,6,16,0.03,3,Rain,280
2013-10-19,58,48,38,40,37,32,93,71,37,30.02,29.96,29.91,10,10,7,16,7,25,0.06,3,Rain,238
2013-10-20,72,57,42,42,38,36,83,53,27,29.93,29.87,29.80,10,10,10,17,8,25,0.00,0,,208
2013-10-21,57,48,38,43,35,29,80,63,44,30.06,30.01,29.89,10,10,10,14,6,20,0.00,2,,294
2013-10-22,56,44,32,46,38,32,95,82,63,30.05,29.95,29.80,10,10,5,21,5,28,0.10,7,Rain,252
2013-10-23,47,40,34,37,31,24,90,71,40,30.14,30.09,30.02,10,10,5,12,7,21,0.00,6,,286
2013-10-24,44,36,28,36,27,22,92,68,45,30.40,30.27,30.13,10,10,7,17,7,23,0.00,5,Rain,300
2013-10-25,54,41,28,31,27,23,87,61,32,30.49,30.37,30.18,10,10,10,15,5,18,0.00,0,,230
2013-10-26,61,48,36,38,30,23,70,51,27,30.17,30.09,30.04,10,10,10,20,10,28,0.00,2,,267
2013-10-27,59,43,28,34,29,25,90,63,31,30.14,30.08,30.01,10,10,10,12,4,,0.00,0,,225
2013-10-28,67,48,30,40,33,28,93,62,27,30.26,30.17,30.05,10,10,10,7,1,,0.00,0,,93
2013-10-29,57,48,40,54,44,34,94,83,69,30.25,30.17,30.07,10,6,1,12,4,17,0.06,4,Rain,88
2013-10-30,67,61,55,65,60,54,96,93,89,30.07,29.97,29.79,10,3,0,12,4,16,0.83,8,Fog-Rain-Thunderstorm,142
2013-10-31,64,56,45,62,54,43,93,90,85,29.78,29.57,29.41,10,9,2,18,9,26,0.67,7,Rain,231